Location: Ariel
(45.9570°N, 122.5700°W)
Time: 08:21:33
(UTC-07:00)

A-11 Canister half - Pass Details

Date: 31 August 2019
Orbit: 1513 x 1686 km, 47.2° (Epoch: 18 September)

Event Time Altitude Azimuth Distance (km) Brightness Sun altitude
Rises 00:07:28 0° 292° (WNW) 4,778 12.1 -33.5°
Reaches altitude 10° 00:11:04 10° 281° (W) 3,817 11.3 -33.7°
Enters shadow 00:17:44 28° 238° (WSW) 2,722 10.1 -34.1°
